Time,TemperatureF,DewpointF,PressureIn,WindDirection,WindDirectionDegrees,WindSpeedMPH,WindSpeedGustMPH,Humidity,HourlyPrecipIn,Conditions,Clouds,dailyrainin,SoftwareType,DateUTC
2013-05-20 00:00:00,55.0,-99.9,-100.00,WNW,287,3.0,-999.0,-999,-99.99,,,-99.99,,2013-05-20 07:00:00,
2013-05-20 01:00:00,55.0,-99.9,-100.00,NW,314,3.0,-999.0,-999,-99.99,,,-99.99,,2013-05-20 08:00:00,
2013-05-20 02:00:00,53.0,-99.9,-100.00,NW,326,3.0,-999.0,-999,-99.99,,,-99.99,,2013-05-20 09:00:00,
2013-05-20 03:00:00,52.0,-99.9,-100.00,WNW,289,2.0,-999.0,-999,-99.99,,,-99.99,,2013-05-20 10:00:00,
2013-05-20 04:00:00,49.0,-99.9,-100.00,WSW,242,1.0,-999.0,-999,-99.99,,,-99.99,,2013-05-20 11:00:00,
2013-05-20 05:00:00,49.0,-99.9,-100.00,West,271,1.0,-999.0,-999,-99.99,,,-99.99,,2013-05-20 12:00:00,
2013-05-20 08:00:00,53.0,-99.9,-100.00,SSW,207,3.0,-999.0,-999,-99.99,,,-99.99,,2013-05-20 15:00:00,
2013-05-20 09:00:00,55.0,-99.9,-100.00,South,176,3.0,-999.0,-999,-99.99,,,-99.99,,2013-05-20 16:00:00,
2013-05-20 10:00:00,57.0,-99.9,-100.00,South,185,3.0,-999.0,-999,-99.99,,,-99.99,,2013-05-20 17:00:00,
2013-05-20 14:00:00,69.0,-99.9,-100.00,SW,222,3.0,-999.0,-999,-99.99,,,-99.99,,2013-05-20 21:00:00,
2013-05-20 15:00:00,69.0,-99.9,-100.00,NNW,329,3.0,-999.0,-999,-99.99,,,-99.99,,2013-05-20 22:00:00,
2013-05-20 16:00:00,72.0,-99.9,-100.00,SSW,209,3.0,-999.0,-999,-99.99,,,-99.99,,2013-05-20 23:00:00,
2013-05-20 18:00:00,73.0,-99.9,-100.00,South,188,3.0,-999.0,-999,-99.99,,,-99.99,,2013-05-21 01:00:00,
2013-05-20 19:00:00,65.0,-99.9,-100.00,WNW,303,8.0,-999.0,-999,-99.99,,,-99.99,,2013-05-21 02:00:00,
2013-05-20 20:00:00,60.0,-99.9,-100.00,NW,308,8.0,-999.0,-999,-99.99,,,-99.99,,2013-05-21 03:00:00,
2013-05-20 21:00:00,58.0,-99.9,-100.00,NW,316,7.0,-999.0,-999,-99.99,,,-99.99,,2013-05-21 04:00:00,
2013-05-20 21:53:00,58.0,-99.9,-100.00,NW,316,7.0,-999.0,-999,-99.99,,,-99.99,,2013-05-21 04:53:00,
2013-05-20 22:00:00,57.0,-99.9,-100.00,NW,317,3.0,-999.0,-999,-99.99,,,-99.99,,2013-05-21 05:00:00,
2013-05-20 22:52:00,57.0,-99.9,-100.00,NW,317,3.0,-999.0,-999,-99.99,,,-99.99,,2013-05-21 05:52:00,
2013-05-20 23:00:00,58.0,-99.9,-100.00,NNE,21,5.0,-999.0,-999,-99.99,,,-99.99,,2013-05-21 06:00:00,
2013-05-20 23:52:00,58.0,-99.9,-100.00,NNE,21,5.0,-999.0,-999,-99.99,,,-99.99,,2013-05-21 06:52:00,